STARLINK-31946, 59940

Orbit data source: Space-Track

STARLINK-31946, 59940 is a payload satellite owned by SpaceX/Seattle (US) in LEO that was launched on Sat, 01 Jun 2024 UTC via an FALCON 9 launch vehicle from the Air Force Eastern Test Range (AFETR). Payload-class satellites include a variety of spacecraft equipped with specific instruments for various scientific and technological missions. These include communications satellites like Starlink; space stations such as the ISS; scientific satellites like the Hubble; Earth observation satellites from companies like Planet Labs, Umbra, and HawkEye 360; GPS; miniature CubeSats for education and research; and military/defense satellites.

Loading next visibility...
Identifier
59940, 2024-106U
Orbit
LEO
Country
Flag of USUS
Related business
Manufacturer
SpaceX/Seattle
Mission
Operational Commercial Communications
Bus & Motor
STARLINK V2M, Unknown motor
Mass
730 kg wet, ~700 kg dry
Launch date (UTC)
2024-06-01 (2 years ago)
Launch vehicle
FALCON 9
Launch site
Air Force Eastern Test Range (AFETR)
Object type
Payload
Rocket body
Debris
Shape & HBR
Box + 2 Pan, 17.7 m
Radar Cross Section
33.884 m², Large (>1 m²)

Expand to show TLE details & history
Last TLE update: 12 hours ago

TLE from 12 hours ago
0 STARLINK-31946
1 59940U 24106U   26132.60718338 -.00001853  00000-0 -57862-4 0  9991
2 59940  43.0048 331.9367 0001310 266.7632  93.3070 15.27562452100920
Epoch: 2026-05-12T14:34Z
TLE epoch observation values (Epoch: 2026-05-12T14:34:20.644Z)
Latitude
0.00001°
Longitude
-117.02844°
Altitude
482.93 km
Speed
7.626 km/s
True Right ascension
22h 07m 44s
True Declination
0° 00' 00"
Sunlit
Object was in daylight at epoch
Visualization orbit readout
Latitude
Unknown
Longitude
Unknown
Altitude
Unknown
Speed
Unknown
Apparent Right ascension
Unknown
Apparent Declination
Unknown
Sunlit
N/A
Visualization observer readout
Local Sidereal Time
10:41:04
Azimuth
Unknown
Elevation
Unknown
Doppler factor
Unknown
Orbital elements
Apogee altitude
485.945 km
Perigee altitude
484.147 km
Semi-major axis
6,863.183 km
Eccentricity
0.00013
Inclination
43.0048°
RAAN
331.9367°
Arg. of periapsis
266.7632°
True anomaly
93.32199°
Mean anomaly
93.307°
Eccentric anomaly
93.31449°
Mean motion
3.81729 °/min
Orbital period
94.31 mins
BSTAR
-0.000057862
Loading maneuver chart data...
Computing Atmospheric mass density...
Loading historical data...
Loading historical data...
Loading historical data...
Loading historical data...
Loading historical data...
Loading historical data...
Loading historical data...

Documentation

Showing up to 5 results
|